CW2796 Weather Reports


Display with metric or nautical units.
time (UTC)temp
F
wind
direction
speed
MPH
gust
MPH
rain 1hr
in
rain 24hr
in
rain mn
in
humidity
%
barometer
mb
20220817003104 102 198 5.0 10.0 0.00 0.00 0.00 26 1005.7
20220817001614 103 211 3.0 9.0 0.00 0.00 0.00 27 1005.8
20220817000136 103 209 4.0 11.0 0.00 0.00 0.00 27 1005.9
20220816234610 103 225 7.0 14.0 0.00 0.00 0.00 27 1006.1
20220816233111 104 202 6.0 11.0 0.00 0.00 0.00 27 1006.2
20220816231617 105 207 5.0 10.0 0.00 0.00 0.00 22 1006.3
20220816230158 106 276 3.0 11.0 0.00 0.00 0.00 22 1006.6
20220816224607 106 242 1.0 11.0 0.00 0.00 0.00 22 1006.9
20220816223108 106 211 6.0 12.0 0.00 0.00 0.00 23 1007.0
20220816221622 106 316 6.0 9.0 0.00 0.00 0.00 23 1007.1
20220816220118 106 192 3.0 11.0 0.00 0.00 0.00 24 1007.1
20220816214612 104 223 6.0 11.0 0.00 0.00 0.00 22 1007.3
20220816201608 103 278 3.0 12.0 0.00 0.00 0.00 25 1008.6
20220816200115 103 263 5.0 9.0 0.00 0.00 0.00 27 1008.6
20220816194606 103 252 3.0 10.0 0.00 0.00 0.00 28 1008.9
20220816193111 102 238 3.0 10.0 0.00 0.00 0.00 30 1009.0
20220816191611 102 254 1.0 8.0 0.00 0.00 0.00 31 1009.1
20220816190116 100 0 1.0 8.0 0.00 0.00 0.00 34 1009.3
20220816184653 100 207 1.0 9.0 0.00 0.00 0.00 33 1009.4
20220816183109 100 164 3.0 5.0 0.00 0.00 0.00 33 1009.5
20220816181620 99 188 2.0 7.0 0.00 0.00 0.00 34 1009.5
20220816180121 98 175 4.0 9.0 0.00 0.00 0.00 35 1009.5
20220816174611 97 55 1.0 7.0 0.00 0.00 0.00 37 1009.5
20220816173113 97 197 1.0 6.0 0.00 0.00 0.00 39 1009.6
20220816171614 96 254 1.0 7.0 0.00 0.00 0.00 40 1009.6
20220816170115 96 215 1.0 4.0 0.00 0.00 0.00 40 1009.5
20220816164640 96 0 1.0 6.0 0.00 0.00 0.00 40 1009.5
20220816161602 94 202 1.0 5.0 0.00 0.00 0.00 43 1009.5
20220816160133 94 215 2.0 4.0 0.00 0.00 0.00 41 1009.5
20220816154607 93 0 1.0 4.0 0.00 0.00 0.00 42 1009.4
20220816153108 92 352 1.0 4.0 0.00 0.00 0.00 43 1009.5
20220816151602 91 290 1.0 3.0 0.00 0.00 0.00 44 1009.5
20220816150108 90 316 0.0 3.0 0.00 0.00 0.00 46 1009.3
20220816144621 89 265 0.0 3.0 0.00 0.00 0.00 49 1009.2
20220816143101 88 306 0.0 4.0 0.00 0.00 0.00 50 1009.2
20220816141613 87 12 2.0 5.0 0.00 0.00 0.00 50 1009.1
20220816140106 86 34 1.0 3.0 0.00 0.00 0.00 51 1009.0
20220816134618 86 0 0.0 1.0 0.00 0.00 0.00 52 1008.8
20220816133111 86 0 0.0 4.0 0.00 0.00 0.00 51 1008.6
20220816131613 87 0 0.0 2.0 0.00 0.00 0.00 48 1008.4
20220816130110 87 0 0.0 3.0 0.00 0.00 0.00 48 1008.2
20220816124703 87 102 1.0 4.0 0.00 0.00 0.00 46 1008.1
20220816123126 87 115 2.0 6.0 0.00 0.00 0.00 46 1008.0
20220816121605 87 113 2.0 6.0 0.00 0.00 0.00 47 1007.9
20220816120136 87 113 3.0 7.0 0.00 0.00 0.00 48 1008.0
20220816114626 87 114 4.0 8.0 0.00 0.00 0.00 47 1008.0
20220816113108 87 138 3.0 6.0 0.00 0.00 0.00 46 1007.9
20220816111621 87 163 1.0 4.0 0.00 0.00 0.00 44 1007.7
20220816110134 87 162 0.0 2.0 0.00 0.00 0.00 44 1007.7
20220816104609 87 0 0.0 1.0 0.00 0.00 0.00 44 1007.8
20220816103107 87 0 1.0 3.0 0.00 0.00 0.00 44 1007.8
20220816101631 87 47 0.0 1.0 0.00 0.00 0.00 43 1007.9
20220816100122 88 0 0.0 0.0 0.00 0.00 0.00 43 1007.9
20220816094604 88 0 0.0 1.0 0.00 0.00 0.00 42 1007.9
20220816093109 88 47 1.0 3.0 0.00 0.00 0.00 42 1007.8
20220816091607 89 352 0.0 1.0 0.00 0.00 0.00 42 1007.9
20220816090113 89 0 0.0 2.0 0.00 0.00 0.00 41 1008.0
20220816084615 89 352 0.0 2.0 0.00 0.00 0.00 41 1008.0
20220816070115 92 96 1.0 4.0 0.00 0.00 0.00 36 1008.0
20220816064608 93 90 1.0 6.0 0.00 0.00 0.00 36 1008.1
20220816063121 93 108 1.0 4.0 0.00 0.00 0.00 35 1008.0
20220816061625 93 124 1.0 4.0 0.00 0.00 0.00 35 1008.1
20220816060119 93 114 0.0 4.0 0.00 0.00 0.00 35 1008.2
20220816054618 93 82 2.0 6.0 0.00 0.00 0.00 35 1008.3
20220816053106 93 0 1.0 4.0 0.00 0.00 0.00 35 1008.3
20220816051611 93 91 2.0 4.0 0.00 0.00 0.00 35 1008.5
20220816050128 93 96 1.0 4.0 0.00 0.00 0.00 34 1008.4
20220816044607 93 0 0.0 2.0 0.00 0.00 0.00 35 1008.4
20220816043112 94 0 0.0 2.0 0.00 0.00 0.00 34 1008.4
20220816041628 94 0 0.0 1.0 0.00 0.00 0.00 33 1008.2
20220816040112 95 0 0.0 1.0 0.00 0.00 0.00 32 1008.1
20220816034607 96 0 0.0 1.0 0.00 0.00 0.00 31 1007.9
20220816033118 96 0 0.0 1.0 0.00 0.00 0.00 30 1007.7
20220816031610 96 0 0.0 1.0 0.00 0.00 0.00 29 1007.5
20220816030111 97 199 0.0 1.0 0.00 0.00 0.00 29 1007.3
20220816024608 97 0 0.0 2.0 0.00 0.00 0.00 28 1007.3
20220816023110 97 199 1.0 3.0 0.00 0.00 0.00 28 1007.3
20220816021610 98 187 1.0 3.0 0.00 0.00 0.00 27 1007.4
20220816020107 99 221 1.0 3.0 0.00 0.00 0.00 27 1007.1
20220816014612 100 0 0.0 3.0 0.00 0.00 0.00 26 1007.1
20220816013123 100 186 1.0 6.0 0.00 0.00 0.00 27 1007.2
20220816011618 101 213 1.0 4.0 0.00 0.00 0.00 26 1007.3
20220816010111 101 234 1.0 6.0 0.00 0.00 0.00 26 1007.3